Regional Weather Roundup
Issued by NWS

Home | Current Version | Previous Version | Text Only | Print | Product List | Glossary On
Versions: 1 2 3 4 5 6 7 8 9 10 11 12 13 14 15 16 17 18 19 20 21 22 23 24 25 26 27 28
000
ASUS44 KBMX 252310
RWRAL

ALABAMA REGIONAL WEATHER ROUNDUP
NATIONAL WEATHER SERVICE BIRMINGHAM AL
600 PM CDT WED MAY 25 2016

NOTE: "FAIR" INDICATES FEW OR NO CLOUDS BELOW 12,000 FEET
WITH NO SIGNIFICANT WEATHER AND/OR OBSTRUCTIONS TO VISIBILITY.

THE REMARK "TC" DENOTES TEMPERATURE IN DEGREES CELSIUS.

ALZ001>011-014-016>018-020-260000-
NORTH ALABAMA

CITY           SKY/WX    TMP DP  RH WIND       PRES   REMARKS
MUSCLE SHOALS  MOSUNNY   85  55  35 SW9       30.13R
HUNTSVILLE     PTSUNNY   86  56  35 SW8       30.12R
DECATUR        CLOUDY    84  57  39 SW12      30.12R
HALEYVILLE     PTSUNNY   82  60  47 S12       30.16R
GADSDEN        SUNNY     87  59  38 VRB7      30.12F
$$

ALZ012-013-022-023-030>036-040>044-260000-
WEST CENTRAL ALABAMA

CITY           SKY/WX    TMP DP  RH WIND       PRES   REMARKS
TUSCALOOSA     MOSUNNY   84  58  40 S10       30.12R
$$

ALZ015-024>027-033>036-040>044-260000-
CENTRAL ALABAMA

CITY           SKY/WX    TMP DP  RH WIND       PRES   REMARKS
BIRMINGHAM     PTSUNNY   85  59  41 S12       30.14S
MONTGOMERY     MOSUNNY   86  60  41 S7        30.12F
SHELBY CO ARPT SUNNY     84  60  44 S10       30.13S
MAXWELL AFB    SUNNY     86  62  43 S9        30.12F
GREENVILLE     FAIR      84  59  42 S5        30.13F
$$

ALZ019-021-028-029-037-038-045>048-260000-
EAST CENTRAL ALABAMA

CITY           SKY/WX    TMP DP  RH WIND       PRES   REMARKS
ANNISTON       SUNNY     86  55  34 VRB6      30.13F
ALEXANDER CITY SUNNY     85  66  53 SW7       30.15S
AUBURN         SUNNY    N/A N/A N/A S10       30.16F
$$

ALZ051>064-260000-
SOUTHWEST ALABAMA

CITY           SKY/WX    TMP DP  RH WIND       PRES   REMARKS
MOBILE         PTSUNNY   84  59  42 SE9       30.13F
BROOKLEY FIELD SUNNY     81  66  60 VRB7      30.14F
EVERGREEN      MOSUNNY   85  63  47 S8        30.12F
$$

ALZ049-050-065>069-260000-
SOUTHEAST ALABAMA

CITY           SKY/WX    TMP DP  RH WIND       PRES   REMARKS
DOTHAN         MOSUNNY   86  61  42 S12       30.16F
OZARK          MOSUNNY   87  64  46 VRB6      30.12F
TROY           MOSUNNY   85  63  47 S5        30.14F
EUFAULA        FAIR      89  60  37 VRB5      30.12F
$$




USA.gov is the U.S. government's official web portal to all federal, state and local government web resources and services.